METEOR 2-8 DEB

Satellite information

Favourite Embed

Satellite Type and Status

DEBRISIN ORBIT

Key statistics

Satellite METEOR 2-8 DEB at a glance.

Uptime

15925

Days in orbit

Revolutions

≈ 14.3

Per day

Orbit

LEO

Low Earth Orbit

Inclination

82.5

Latest

Satellite identification and parameters

Extended collection of information and parameters for METEOR 2-8 DEB.

Object identification

Identified? True

Debris? True

Object name: METEOR 2-8 DEB

International designator: 1982-025Q

Object number (NORAD): 36330

Object ID (CCSDS): 36330

Country: COMMONWEALTH OF INDEPENDENT STATES (CIS)

Current information (Y/N): Y

RCS size: SMALL

Orbital parameters

Period: 100.694 minutes

Inclination: 82.5353 deg

SMA: 7169.608 km

Apoapsis: 809.171 km

Periapsis: 773.776 km

RAAN: 35.0608 deg

Eccentricy: 0.00246847

Argument of periapsis: 288.6411 deg

Mean anomaly: 71.2094 deg

Mean motion: 14.30077594 rev/day

Mean motion (dot): 0.00006783 rev/day2

B* drag term: 0.0026106791 1/REarth

Two-line elements (TLE)

Creation date: Oct. 25, 2025, 10:45 a.m.

Reference frame: TEME

Reference center: EARTH

Epoch: Oct. 25, 2025, 12:04 a.m. UTC

TLE line 0: 0 METEOR 2-8 DEB

TLE line 1: 1 36330U 82025Q 25298.00338049 .00006783 00000-0 26107-2 0 9997

TLE line 2: 2 36330 82.5353 35.0608 0024685 288.6411 71.2094 14.30077594680355

Live tracking on map

Real-time ground track for satellite METEOR 2-8 DEB.

In-orbit conjunctions

A list of the most updated potential collisions computed for object METEOR 2-8 DEB.

Target Orbit TCA Probability of collision Miss distance Type
THORAD AGENA D DEB SSO 2025-08-25 08:33:15 0.0005600462 67.0 (m) DEBRIS
SL-6 R/B SSO 2025-08-04 13:03:15 0.0001313683 352.0 (m) ROCKET BODY
SAFIR 2 SSO 2024-08-28 21:01:15 0.0003183805 545.0 (m) PAYLOAD

Associated space launch

Second generation soviet meteorological satellite

METEOR 2-8 DEB was lifted into orbit during the mission ‘Tsiklon-3 | Meteor-2 8’, on board a Tsiklon-3 space rocket.

The launch took place on March 25, 1982, 9:50 a.m. from 32/1.

For more information about the launch, click the button.

Launch to space Tsiklon-3 | Meteor-2 8
Tsiklon-3 | Meteor-2 8

Agency: N/A

Status: Launch Successful

Launch date: March 25, 1982, 9:50 a.m. UTC

Rocket: Tsiklon-3

Launch pad: 32/1

Location: Plesetsk Cosmodrome, Russian Federation

...

Latest news about this satellite

There are no fresh news available about this satellite. Check back as we update our databases every day.


Newsletter sign-up

Weekly statistics, charts and insights to help you stay on top of the space industry.